Stündliche Wetter Barnkowo

Heute, 28 Oktober, Mittwoch

Zeit Temperatur Niederschläge Wind Luftdruck Luftfeuchtigkeit
00:00 +7°C° 0 mm 5 m/S 755 mmHg 78%
01:00 +7°C° 0 mm 5 m/S 755 mmHg 79%
02:00 +7°C° 0 mm 5 m/S 754 mmHg 78%
03:00 +7°C° 0 mm 5 m/S 754 mmHg 78%
04:00 +7°C° 0 mm 5 m/S 754 mmHg 78%
05:00 +7°C° 0 mm 5 m/S 754 mmHg 76%
06:00 +8°C° 0 mm 6 m/S 754 mmHg 73%
07:00 +8°C° 0 mm 6 m/S 754 mmHg 71%
08:00 +8°C° 0 mm 6 m/S 754 mmHg 73%
09:00 +9°C° 0 mm 6 m/S 754 mmHg 76%
10:00 +9°C° 0 mm 6 m/S 755 mmHg 78%
11:00 +9°C° 0.1 mm 5 m/S 755 mmHg 80%
12:00 +9°C° 0.1 mm 5 m/S 754 mmHg 82%
13:00 +9°C° 0.1 mm 5 m/S 754 mmHg 84%
14:00 +10°C° 0.2 mm 4 m/S 755 mmHg 86%
15:00 +11°C° 0.2 mm 4 m/S 755 mmHg 87%
16:00 +11°C° 0.2 mm 4 m/S 755 mmHg 89%
17:00 +11°C° 0.1 mm 3 m/S 755 mmHg 89%
18:00 +10°C° 0.1 mm 3 m/S 755 mmHg 90%
19:00 +10°C° 0.1 mm 3 m/S 755 mmHg 90%
20:00 +10°C° 0 mm 3 m/S 756 mmHg 90%
21:00 +9°C° 0 mm 3 m/S 756 mmHg 89%
22:00 +8°C° 0 mm 4 m/S 756 mmHg 88%
23:00 +8°C° 0 mm 4 m/S 756 mmHg 87%

Morgen, 29 Oktober, Donnerstag

Zeit Temperatur Niederschläge Wind Luftdruck Luftfeuchtigkeit
00:00 +8°C° 0 mm 4 m/S 756 mmHg 86%
01:00 +7°C° 0 mm 4 m/S 756 mmHg 84%
02:00 +7°C° 0 mm 4 m/S 756 mmHg 84%
03:00 +7°C° 0 mm 5 m/S 756 mmHg 84%
04:00 +7°C° 0 mm 5 m/S 755 mmHg 83%
05:00 +7°C° 0 mm 5 m/S 755 mmHg 85%
06:00 +8°C° 0 mm 5 m/S 755 mmHg 86%
07:00 +8°C° 0 mm 5 m/S 755 mmHg 87%
08:00 +8°C° 0.2 mm 5 m/S 755 mmHg 85%
09:00 +9°C° 0.2 mm 5 m/S 756 mmHg 83%
10:00 +9°C° 0.2 mm 6 m/S 756 mmHg 81%
11:00 +10°C° 0.3 mm 6 m/S 756 mmHg 76%
12:00 +10°C° 0.3 mm 6 m/S 756 mmHg 71%
13:00 +11°C° 0.3 mm 7 m/S 756 mmHg 67%
14:00 +10°C° 0.1 mm 6 m/S 757 mmHg 69%
15:00 +9°C° 0.1 mm 5 m/S 757 mmHg 71%
16:00 +9°C° 0.1 mm 5 m/S 758 mmHg 73%
17:00 +8°C° 0.1 mm 5 m/S 759 mmHg 76%
18:00 +8°C° 0.1 mm 5 m/S 759 mmHg 78%
19:00 +8°C° 0.1 mm 4 m/S 760 mmHg 80%
20:00 +7°C° 0 mm 4 m/S 760 mmHg 82%
21:00 +7°C° 0 mm 4 m/S 761 mmHg 84%
22:00 +6°C° 0 mm 4 m/S 761 mmHg 86%
23:00 +6°C° 0 mm 4 m/S 761 mmHg 87%

übermorgen, 30 Oktober, Freitag

Zeit Temperatur Niederschläge Wind Luftdruck Luftfeuchtigkeit
00:00 +5°C° 0 mm 3 m/S 761 mmHg 88%
01:00 +5°C° 0 mm 3 m/S 761 mmHg 90%
02:00 +5°C° 0 mm 3 m/S 761 mmHg 89%
03:00 +5°C° 0 mm 3 m/S 761 mmHg 88%
04:00 +6°C° 0 mm 4 m/S 761 mmHg 87%
05:00 +6°C° 0.7 mm 4 m/S 760 mmHg 90%
06:00 +6°C° 0.7 mm 4 m/S 760 mmHg 92%
07:00 +7°C° 0.7 mm 4 m/S 759 mmHg 95%
08:00 +8°C° 1.5 mm 4 m/S 759 mmHg 95%
09:00 +8°C° 1.5 mm 4 m/S 758 mmHg 96%
10:00 +10°C° 1.5 mm 4 m/S 758 mmHg 96%
11:00 +10°C° 0.9 mm 5 m/S 758 mmHg 95%
12:00 +10°C° 0.9 mm 6 m/S 758 mmHg 94%
13:00 +11°C° 0.9 mm 6 m/S 758 mmHg 92%
14:00 +11°C° 0.2 mm 6 m/S 758 mmHg 92%
15:00 +13°C° 0.2 mm 6 m/S 758 mmHg 91%
16:00 +13°C° 0.2 mm 6 m/S 758 mmHg 90%
17:00 +13°C° 0.2 mm 5 m/S 759 mmHg 91%
18:00 +13°C° 0.2 mm 5 m/S 759 mmHg 92%
19:00 +13°C° 0.2 mm 5 m/S 760 mmHg 93%
20:00 +13°C° 0.1 mm 5 m/S 760 mmHg 93%
21:00 +13°C° 0.1 mm 5 m/S 761 mmHg 93%
22:00 +13°C° 0.1 mm 4 m/S 761 mmHg 93%
23:00 +13°C° 0.1 mm 4 m/S 761 mmHg 94%

31 Oktober, Samstag

Zeit Temperatur Niederschläge Wind Luftdruck Luftfeuchtigkeit
00:00 +13°C° 0.1 mm 4 m/S 762 mmHg 94%
01:00 +13°C° 0.1 mm 3 m/S 762 mmHg 95%
02:00 +13°C° 0.1 mm 3 m/S 762 mmHg 96%
03:00 +13°C° 0.1 mm 3 m/S 763 mmHg 96%
04:00 +13°C° 0.1 mm 2 m/S 763 mmHg 97%
05:00 +13°C° 0.1 mm 2 m/S 763 mmHg 97%
06:00 +13°C° 0.1 mm 2 m/S 764 mmHg 97%
07:00 +13°C° 0.1 mm 1 m/S 764 mmHg 97%
08:00 +14°C° 0.1 mm 1 m/S 764 mmHg 97%
09:00 +14°C° 0.1 mm 1 m/S 764 mmHg 96%
10:00 +14°C° 0.1 mm 1 m/S 765 mmHg 95%
11:00 +14°C° 0 mm 1 m/S 765 mmHg 93%
12:00 +15°C° 0 mm 1 m/S 765 mmHg 90%
13:00 +15°C° 0 mm 1 m/S 765 mmHg 88%
14:00 +15°C° 0 mm 2 m/S 765 mmHg 90%
15:00 +15°C° 0 mm 2 m/S 765 mmHg 91%
16:00 +14°C° 0 mm 2 m/S 765 mmHg 92%
17:00 +13°C° 0 mm 3 m/S 765 mmHg 94%
18:00 +12°C° 0 mm 3 m/S 765 mmHg 95%
19:00 +12°C° 0 mm 3 m/S 765 mmHg 96%
20:00 +12°C° 0 mm 3 m/S 764 mmHg 95%
21:00 +12°C° 0 mm 3 m/S 764 mmHg 95%
22:00 +12°C° 0 mm 3 m/S 764 mmHg 94%
23:00 +12°C° 0 mm 4 m/S 764 mmHg 94%

1 November, Sonntag

Zeit Temperatur Niederschläge Wind Luftdruck Luftfeuchtigkeit
00:00 +12°C° 0 mm 4 m/S 764 mmHg 95%
01:00 +10°C° 0 mm 5 m/S 764 mmHg 95%
02:00 +10°C° 0 mm 5 m/S 763 mmHg 95%
03:00 +10°C° 0 mm 5 m/S 763 mmHg 95%
04:00 +9°C° 0 mm 5 m/S 763 mmHg 94%
05:00 +9°C° 0 mm 5 m/S 762 mmHg 94%
06:00 +9°C° 0 mm 5 m/S 762 mmHg 94%
07:00 +9°C° 0 mm 5 m/S 762 mmHg 94%
08:00 +10°C° 0 mm 5 m/S 762 mmHg 90%
09:00 +11°C° 0 mm 6 m/S 761 mmHg 86%
10:00 +13°C° 0 mm 6 m/S 761 mmHg 82%
11:00 +14°C° 0 mm 6 m/S 761 mmHg 79%
12:00 +15°C° 0 mm 6 m/S 761 mmHg 75%
13:00 +16°C° 0 mm 6 m/S 760 mmHg 71%
14:00 +15°C° 0 mm 6 m/S 760 mmHg 73%
15:00 +15°C° 0 mm 5 m/S 760 mmHg 75%
16:00 +14°C° 0 mm 5 m/S 760 mmHg 77%
17:00 +14°C° 0 mm 5 m/S 760 mmHg 77%
18:00 +14°C° 0 mm 5 m/S 760 mmHg 77%
19:00 +14°C° 0 mm 6 m/S 760 mmHg 77%
20:00 +14°C° 0 mm 5 m/S 760 mmHg 78%
21:00 +14°C° 0 mm 5 m/S 760 mmHg 79%
22:00 +14°C° 0 mm 5 m/S 760 mmHg 80%
23:00 +14°C° 0 mm 5 m/S 760 mmHg 81%

2 November, Montag

Zeit Temperatur Niederschläge Wind Luftdruck Luftfeuchtigkeit
00:00 +14°C° 0 mm 5 m/S 760 mmHg 81%
01:00 +13°C° 0 mm 5 m/S 760 mmHg 82%
02:00 +13°C° 0 mm 5 m/S 760 mmHg 81%
03:00 +13°C° 0 mm 5 m/S 760 mmHg 79%
04:00 +13°C° 0 mm 5 m/S 760 mmHg 78%
05:00 +13°C° 0 mm 5 m/S 760 mmHg 77%
06:00 +13°C° 0 mm 5 m/S 760 mmHg 77%
07:00 +13°C° 0 mm 5 m/S 760 mmHg 76%
08:00 +14°C° 0 mm 5 m/S 760 mmHg 74%
09:00 +15°C° 0 mm 5 m/S 760 mmHg 73%
10:00 +15°C° 0 mm 5 m/S 760 mmHg 71%
11:00 +16°C° 0 mm 5 m/S 760 mmHg 70%
12:00 +17°C° 0 mm 5 m/S 761 mmHg 69%
13:00 +17°C° 0 mm 5 m/S 761 mmHg 68%
14:00 +17°C° 0 mm 5 m/S 761 mmHg 71%
15:00 +18°C° 0 mm 4 m/S 761 mmHg 73%
16:00 +17°C° 0 mm 4 m/S 760 mmHg 76%
17:00 +15°C° 0 mm 4 m/S 761 mmHg 78%
18:00 +15°C° 0 mm 4 m/S 761 mmHg 81%
19:00 +14°C° 0 mm 3 m/S 761 mmHg 83%
20:00 +14°C° 0 mm 3 m/S 761 mmHg 83%
21:00 +14°C° 0 mm 4 m/S 761 mmHg 82%
22:00 +14°C° 0 mm 4 m/S 761 mmHg 82%
23:00 +14°C° 0 mm 4 m/S 761 mmHg 79%
Mehr zeigen